QPF
0.00 0.00 0.00 0.00 0.00 0.00 0.00 0.00 0.00 0.00 0.00 0.00 0.00 0.00 0.00 0.00 0.00 0.01 0.01 0.01 0.01 0.02 0.02 0.02 0.02 0.04 0.05 0.05 0.04 0.03 0.03 0.03 0.05 0.05 0.04 0.04 0.06 0.07 0.05 0.04 0.03 0.04 0.04 0.04
0.00 0.00 0.00 0.00 0.00 0.00 0.00 0.00 0.00 0.00 0.01 0.00 0.00 0.00 0.01 0.01 0.01 0.01 0.00 0.01 0.01 0.01 0.01 0.01 0.02 0.02 0.02 0.03 0.03 0.03 0.03 0.04 0.05 0.04 0.04 0.05 0.07 0.08 0.08 0.08 0.06 0.05 0.05 0.05
0.01 0.00 0.00 0.00 0.00 0.00 0.01 0.01 0.00 0.01 0.01 0.00 0.00 0.01 0.01 0.01 0.01 0.01 0.00 0.00 0.00 0.01 0.01 0.01 0.02 0.02 0.02 0.02 0.02 0.02 0.03 0.05 0.05 0.05 0.05 0.06 0.07 0.11 0.13 0.09 0.05 0.04 0.05 0.04
0.01 0.01 0.01 0.00 0.00 0.01 0.01 0.01 0.01 0.01 0.01 0.01 0.01 0.01 0.01 0.01 0.00 0.01 0.01 0.01 0.00 0.01 0.01 0.01 0.02 0.04 0.05 0.04 0.03 0.05 0.07 0.09 0.09 0.10 0.08 0.09 0.11 0.11 0.06 0.03 0.03 0.03 0.04 0.03
0.00 0.01 0.01 0.00 0.01 0.01 0.01 0.01 0.01 0.02 0.02 0.01 0.01 0.01 0.01 0.00 0.00 0.01 0.01 0.01 0.01 0.01 0.01 0.02 0.03 0.05 0.06 0.07 0.08 0.09 0.13 0.15 0.15 0.11 0.08 0.07 0.06 0.04 0.03 0.03 0.02 0.03 0.03 0.03
0.00 0.01 0.01 0.01 0.01 0.01 0.01 0.02 0.02 0.02 0.03 0.03 0.02 0.01 0.01 0.00 0.00 0.01 0.01 0.01 0.01 0.02 0.01 0.02 0.03 0.07 0.09 0.14 0.19 0.18 0.15 0.14 0.13 0.09 0.06 0.04 0.04 0.04 0.03 0.03 0.03 0.02 0.01 0.01
0.01 0.02 0.02 0.01 0.01 0.02 0.02 0.02 0.01 0.01 0.02 0.03 0.02 0.01 0.01 0.01 0.01 0.01 0.01 0.02 0.03 0.03 0.03 0.03 0.04 0.07 0.10 0.11 0.11 0.09 0.09 0.09 0.09 0.09 0.07 0.05 0.05 0.04 0.04 0.04 0.02 0.01 0.01 0.01
0.03 0.03 0.03 0.02 0.02 0.03 0.02 0.02 0.02 0.02 0.02 0.02 0.02 0.02 0.01 0.01 0.01 0.01 0.01 0.03 0.04 0.05 0.06 0.06 0.04 0.05 0.06 0.07 0.07 0.06 0.06 0.06 0.06 0.06 0.06 0.06 0.05 0.05 0.06 0.05 0.03 0.02 0.01 0.01
0.04 0.02 0.01 0.02 0.02 0.02 0.01 0.02 0.03 0.03 0.03 0.03 0.03 0.03 0.03 0.03 0.02 0.03 0.04 0.05 0.05 0.05 0.05 0.06 0.06 0.06 0.06 0.07 0.07 0.07 0.05 0.04 0.05 0.06 0.05 0.05 0.05 0.06 0.06 0.05 0.04 0.03 0.01 0.01
0.03 0.02 0.02 0.02 0.03 0.03 0.02 0.03 0.03 0.03 0.04 0.04 0.03 0.03 0.04 0.04 0.04 0.04 0.04 0.05 0.04 0.03 0.03 0.04 0.07 0.09 0.08 0.08 0.07 0.05 0.05 0.04 0.03 0.04 0.03 0.03 0.04 0.05 0.07 0.06 0.05 0.04 0.03 0.02
0.05 0.04 0.03 0.03 0.03 0.03 0.04 0.04 0.04 0.04 0.05 0.05 0.04 0.04 0.04 0.05 0.06 0.05 0.05 0.05 0.04 0.03 0.04 0.05 0.05 0.04 0.04 0.05 0.03 0.02 0.02 0.02 0.02 0.02 0.03 0.04 0.05 0.07 0.08 0.08 0.07 0.07 0.05 0.03
0.04 0.04 0.04 0.04 0.04 0.05 0.07 0.08 0.07 0.08 0.07 0.05 0.05 0.05 0.05 0.06 0.10 0.10 0.08 0.06 0.06 0.05 0.04 0.02 0.02 0.01 0.01 0.01 0.01 0.01 0.01 0.01 0.01 0.02 0.03 0.04 0.05 0.06 0.08 0.07 0.08 0.08 0.06 0.04
0.05 0.06 0.06 0.05 0.06 0.06 0.07 0.08 0.08 0.08 0.07 0.06 0.06 0.06 0.06 0.08 0.11 0.13 0.12 0.10 0.08 0.06 0.04 0.03 0.02 0.02 0.02 0.02 0.01 0.01 0.02 0.02 0.02 0.03 0.04 0.05 0.06 0.08 0.09 0.07 0.06 0.05 0.05 0.04
0.03 0.05 0.06 0.06 0.06 0.05 0.05 0.06 0.06 0.06 0.07 0.07 0.06 0.05 0.05 0.07 0.08 0.08 0.11 0.09 0.09 0.08 0.07 0.05 0.04 0.03 0.02 0.02 0.02 0.02 0.02 0.02 0.03 0.03 0.04 0.05 0.05 0.07 0.08 0.07 0.06 0.05 0.05 0.06
0.03 0.04 0.03 0.03 0.03 0.02 0.03 0.04 0.05 0.06 0.07 0.06 0.05 0.04 0.03 0.04 0.04 0.04 0.03 0.04 0.04 0.05 0.06 0.08 0.08 0.06 0.03 0.02 0.01 0.02 0.03 0.04 0.04 0.05 0.05 0.05 0.05 0.06 0.06 0.05 0.04 0.04 0.04 0.05
0.06 0.07 0.06 0.05 0.04 0.03 0.04 0.04 0.05 0.06 0.05 0.04 0.03 0.02 0.02 0.02 0.02 0.01 0.02 0.02 0.03 0.03 0.03 0.04 0.07 0.08 0.07 0.06 0.05 0.04 0.03 0.03 0.03 0.04 0.05 0.06 0.07 0.07 0.07 0.06 0.05 0.04 0.04 0.05
0.10 0.09 0.08 0.07 0.05 0.04 0.05 0.05 0.05 0.04 0.03 0.02 0.01 0.01 0.01 0.01 0.01 0.01 0.01 0.01 0.01 0.02 0.03 0.03 0.03 0.04 0.05 0.06 0.05 0.04 0.03 0.02 0.02 0.02 0.03 0.04 0.04 0.05 0.05 0.06 0.05 0.06 0.06 0.06
0.06 0.06 0.05 0.05 0.05 0.05 0.05 0.05 0.04 0.04 0.02 0.02 0.02 0.02 0.01 0.01 0.01 0.00 0.00 0.01 0.01 0.01 0.02 0.03 0.02 0.02 0.02 0.03 0.04 0.03 0.02 0.02 0.01 0.01 0.01 0.01 0.02 0.03 0.04 0.04 0.05 0.06 0.06 0.07
0.05 0.06 0.06 0.05 0.05 0.05 0.07 0.07 0.04 0.04 0.03 0.03 0.03 0.02 0.02 0.01 0.01 0.00 0.00 0.00 0.01 0.01 0.01 0.01 0.01 0.01 0.01 0.01 0.02 0.03 0.03 0.02 0.02 0.01 0.01 0.02 0.02 0.02 0.02 0.03 0.03 0.03 0.04 0.04
0.05 0.06 0.06 0.05 0.05 0.04 0.05 0.08 0.08 0.04 0.03 0.03 0.03 0.03 0.02 0.01 0.01 0.01 0.01 0.00 0.00 0.00 0.01 0.01 0.01 0.01 0.01 0.02 0.02 0.02 0.02 0.02 0.02 0.02 0.02 0.02 0.02 0.02 0.03 0.03 0.03 0.03 0.03 0.03
0.06 0.05 0.04 0.04 0.03 0.02 0.03 0.03 0.05 0.05 0.05 0.03 0.02 0.02 0.01 0.01 0.01 0.01 0.01 0.01 0.00 0.00 0.00 0.01 0.01 0.01 0.01 0.01 0.02 0.02 0.03 0.03 0.02 0.02 0.02 0.02 0.02 0.02 0.02 0.02 0.02 0.02 0.02 0.02
0.04 0.03 0.02 0.01 0.01 0.02 0.05 0.04 0.03 0.03 0.04 0.03 0.03 0.02 0.01 0.01 0.01 0.01 0.01 0.01 0.01 0.01 0.00 0.01 0.01 0.01 0.01 0.01 0.02 0.02 0.03 0.03 0.03 0.03 0.03 0.02 0.02 0.02 0.02 0.02 0.03 0.02 0.02 0.02
0.02 0.01 0.01 0.01 0.01 0.02 0.06 0.07 0.04 0.03 0.03 0.03 0.03 0.03 0.02 0.01 0.01 0.01 0.01 0.01 0.01 0.01 0.01 0.01 0.01 0.01 0.01 0.01 0.02 0.02 0.03 0.03 0.03 0.04 0.05 0.04 0.03 0.03 0.03 0.03 0.03 0.02 0.01 0.01
0.01 0.01 0.01 0.01 0.01 0.02 0.04 0.07 0.07 0.05 0.04 0.03 0.03 0.03 0.03 0.01 0.01 0.00 0.00 0.01 0.01 0.01 0.01 0.01 0.01 0.02 0.02 0.02 0.03 0.03 0.04 0.04 0.04 0.05 0.06 0.07 0.06 0.04 0.04 0.03 0.03 0.02 0.01 0.01
0.01 0.01 0.01 0.01 0.01 0.03 0.04 0.05 0.07 0.07 0.06 0.05 0.04 0.03 0.03 0.02 0.01 0.00 0.00 0.01 0.01 0.01 0.01 0.01 0.01 0.01 0.02 0.02 0.02 0.03 0.03 0.04 0.04 0.06 0.07 0.06 0.05 0.03 0.02 0.02 0.02 0.02 0.01 0.01
0.01 0.01 0.01 0.01 0.01 0.02 0.04 0.05 0.05 0.04 0.04 0.04 0.03 0.02 0.02 0.02 0.01 0.01 0.01 0.01 0.01 0.01 0.01 0.01 0.01 0.01 0.01 0.01 0.02 0.03 0.04 0.04 0.05 0.05 0.05 0.04 0.03 0.03 0.02 0.02 0.01 0.01 0.01 0.01
0.02 0.01 0.01 0.01 0.01 0.01 0.02 0.03 0.04 0.04 0.04 0.04 0.03 0.02 0.01 0.01 0.01 0.01 0.02 0.02 0.02 0.03 0.02 0.02 0.02 0.01 0.01 0.01 0.01 0.02 0.02 0.02 0.02 0.03 0.04 0.04 0.04 0.03 0.02 0.02 0.02 0.02 0.01 0.01
MSLP
1010.54 1010.67 1010.74 1010.72 1010.58 1010.28 1009.81 1009.18 1008.39 1007.48 1006.50 1005.50 1004.52 1003.62 1002.80 1002.09 1001.47 1000.95 1000.51 1000.15 999.88 999.70 999.64 999.72 999.96 1000.37 1000.93 1001.64 1002.45 1003.32 1004.21 1005.07 1005.88 1006.62 1007.29 1007.89 1008.45 1008.96 1009.45 1009.92 1010.37 1010.79 1011.18 1011.54
1010.80 1010.77 1010.63 1010.35 1009.93 1009.38 1008.71 1007.94 1007.12 1006.28 1005.45 1004.67 1003.96 1003.33 1002.76 1002.26 1001.79 1001.36 1000.95 1000.58 1000.28 1000.07 999.99 1000.07 1000.33 1000.77 1001.37 1002.11 1002.94 1003.81 1004.67 1005.48 1006.23 1006.90 1007.50 1008.04 1008.55 1009.04 1009.52 1009.99 1010.44 1010.87 1011.26 1011.60
1011.03 1010.83 1010.48 1009.98 1009.34 1008.59 1007.78 1006.94 1006.13 1005.37 1004.70 1004.12 1003.63 1003.21 1002.83 1002.47 1002.09 1001.70 1001.29 1000.90 1000.57 1000.34 1000.26 1000.36 1000.66 1001.16 1001.82 1002.61 1003.46 1004.33 1005.16 1005.93 1006.60 1007.19 1007.72 1008.19 1008.65 1009.10 1009.56 1010.02 1010.47 1010.90 1011.29 1011.63
1011.23 1010.88 1010.35 1009.67 1008.86 1007.99 1007.10 1006.24 1005.47 1004.81 1004.28 1003.86 1003.54 1003.27 1003.00 1002.70 1002.35 1001.95 1001.51 1001.09 1000.73 1000.48 1000.42 1000.56 1000.92 1001.48 1002.21 1003.05 1003.94 1004.81 1005.62 1006.33 1006.94 1007.45 1007.90 1008.30 1008.70 1009.12 1009.55 1010.00 1010.45 1010.88 1011.27 1011.60
1011.38 1010.89 1010.22 1009.40 1008.49 1007.55 1006.64 1005.81 1005.11 1004.56 1004.15 1003.85 1003.64 1003.44 1003.22 1002.93 1002.56 1002.12 1001.63 1001.16 1000.77 1000.53 1000.48 1000.67 1001.09 1001.73 1002.52 1003.41 1004.32 1005.19 1005.97 1006.63 1007.18 1007.62 1007.99 1008.34 1008.69 1009.07 1009.48 1009.92 1010.37 1010.79 1011.18 1011.51
1011.44 1010.81 1010.03 1009.13 1008.18 1007.22 1006.34 1005.58 1004.96 1004.51 1004.20 1003.99 1003.84 1003.67 1003.45 1003.13 1002.72 1002.22 1001.68 1001.17 1000.76 1000.53 1000.51 1000.75 1001.23 1001.92 1002.76 1003.68 1004.60 1005.45 1006.19 1006.81 1007.29 1007.67 1007.98 1008.27 1008.58 1008.93 1009.32 1009.75 1010.19 1010.62 1011.00 1011.32
1011.33 1010.61 1009.76 1008.82 1007.86 1006.94 1006.13 1005.45 1004.93 1004.57 1004.34 1004.19 1004.07 1003.91 1003.66 1003.31 1002.84 1002.30 1001.72 1001.19 1000.79 1000.57 1000.59 1000.87 1001.39 1002.11 1002.97 1003.89 1004.79 1005.61 1006.30 1006.85 1007.27 1007.59 1007.85 1008.10 1008.37 1008.69 1009.06 1009.48 1009.91 1010.33 1010.70 1011.02
1011.05 1010.26 1009.38 1008.45 1007.53 1006.68 1005.95 1005.37 1004.95 1004.67 1004.50 1004.40 1004.29 1004.12 1003.86 1003.48 1002.98 1002.42 1001.85 1001.33 1000.95 1000.76 1000.82 1001.12 1001.66 1002.38 1003.22 1004.10 1004.94 1005.69 1006.31 1006.79 1007.14 1007.40 1007.61 1007.81 1008.05 1008.34 1008.69 1009.08 1009.50 1009.90 1010.27 1010.58
1010.62 1009.80 1008.93 1008.04 1007.20 1006.44 1005.82 1005.34 1005.00 1004.80 1004.68 1004.60 1004.50 1004.34 1004.07 1003.69 1003.20 1002.66 1002.12 1001.65 1001.32 1001.18 1001.27 1001.58 1002.11 1002.79 1003.57 1004.37 1005.12 1005.77 1006.29 1006.68 1006.95 1007.14 1007.29 1007.44 1007.64 1007.89 1008.21 1008.57 1008.95 1009.34 1009.69 1009.99
1010.10 1009.32 1008.50 1007.69 1006.95 1006.30 1005.78 1005.39 1005.14 1004.99 1004.91 1004.85 1004.76 1004.60 1004.35 1004.00 1003.56 1003.08 1002.61 1002.22 1001.96 1001.87 1001.99 1002.30 1002.78 1003.40 1004.07 1004.75 1005.37 1005.89 1006.29 1006.57 1006.74 1006.85 1006.94 1007.03 1007.18 1007.38 1007.65 1007.97 1008.31 1008.66 1008.98 1009.28
1009.63 1008.92 1008.19 1007.50 1006.87 1006.34 1005.91 1005.61 1005.42 1005.31 1005.25 1005.20 1005.13 1004.99 1004.77 1004.47 1004.11 1003.72 1003.35 1003.05 1002.87 1002.84 1002.97 1003.26 1003.68 1004.19 1004.74 1005.26 1005.73 1006.10 1006.35 1006.51 1006.58 1006.60 1006.61 1006.64 1006.73 1006.87 1007.07 1007.33 1007.62 1007.92 1008.21 1008.48
1009.33 1008.72 1008.13 1007.56 1007.06 1006.64 1006.31 1006.07 1005.92 1005.82 1005.77 1005.73 1005.66 1005.54 1005.36 1005.14 1004.86 1004.58 1004.32 1004.12 1004.02 1004.04 1004.17 1004.42 1004.75 1005.14 1005.53 1005.90 1006.19 1006.40 1006.51 1006.54 1006.51 1006.44 1006.37 1006.34 1006.35 1006.42 1006.55 1006.73 1006.95 1007.19 1007.43 1007.68
1009.28 1008.81 1008.36 1007.94 1007.56 1007.24 1006.98 1006.79 1006.66 1006.57 1006.51 1006.45 1006.38 1006.28 1006.15 1005.98 1005.80 1005.62 1005.46 1005.35 1005.31 1005.35 1005.47 1005.66 1005.90 1006.16 1006.40 1006.59 1006.73 1006.78 1006.77 1006.68 1006.56 1006.41 1006.27 1006.16 1006.10 1006.10 1006.15 1006.25 1006.39 1006.56 1006.74 1006.94
1009.52 1009.20 1008.89 1008.60 1008.34 1008.11 1007.91 1007.75 1007.63 1007.53 1007.44 1007.37 1007.29 1007.20 1007.09 1006.98 1006.87 1006.76 1006.68 1006.64 1006.64 1006.69 1006.77 1006.89 1007.03 1007.15 1007.25 1007.30 1007.29 1007.22 1007.10 1006.93 1006.73 1006.52 1006.33 1006.16 1006.04 1005.96 1005.93 1005.95 1006.00 1006.08 1006.19 1006.33
1010.02 1009.84 1009.67 1009.50 1009.33 1009.17 1009.02 1008.88 1008.75 1008.63 1008.52 1008.42 1008.32 1008.23 1008.14 1008.06 1007.99 1007.94 1007.90 1007.89 1007.90 1007.93 1007.96 1008.01 1008.04 1008.05 1008.02 1007.95 1007.83 1007.67 1007.47 1007.25 1007.01 1006.77 1006.54 1006.34 1006.17 1006.03 1005.92 1005.85 1005.81 1005.80 1005.83 1005.88
1010.71 1010.65 1010.58 1010.50 1010.42 1010.31 1010.20 1010.07 1009.94 1009.80 1009.67 1009.54 1009.42 1009.32 1009.23 1009.16 1009.11 1009.07 1009.05 1009.03 1009.02 1009.00 1008.98 1008.94 1008.88 1008.78 1008.66 1008.50 1008.31 1008.09 1007.86 1007.61 1007.36 1007.12 1006.88 1006.66 1006.46 1006.27 1006.10 1005.95 1005.83 1005.72 1005.65 1005.61
1011.48 1011.50 1011.51 1011.50 1011.47 1011.41 1011.33 1011.22 1011.08 1010.94 1010.79 1010.64 1010.51 1010.40 1010.30 1010.22 1010.16 1010.11 1010.07 1010.02 1009.96 1009.89 1009.80 1009.67 1009.53 1009.35 1009.15 1008.93 1008.70 1008.46 1008.22 1007.98 1007.75 1007.53 1007.31 1007.09 1006.87 1006.65 1006.43 1006.22 1006.00 1005.81 1005.63 1005.48
1012.24 1012.30 1012.35 1012.39 1012.40 1012.38 1012.32 1012.22 1012.10 1011.96 1011.82 1011.67 1011.53 1011.41 1011.30 1011.20 1011.12 1011.04 1010.96 1010.86 1010.74 1010.60 1010.43 1010.23 1010.01 1009.77 1009.52 1009.27 1009.02 1008.78 1008.55 1008.34 1008.14 1007.95 1007.75 1007.55 1007.33 1007.09 1006.84 1006.56 1006.28 1006.00 1005.72 1005.47
1012.90 1012.98 1013.05 1013.11 1013.15 1013.15 1013.11 1013.05 1012.95 1012.84 1012.70 1012.57 1012.44 1012.31 1012.20 1012.08 1011.97 1011.86 1011.72 1011.57 1011.39 1011.17 1010.93 1010.67 1010.38 1010.09 1009.80 1009.53 1009.28 1009.05 1008.85 1008.66 1008.50 1008.34 1008.17 1007.98 1007.77 1007.52 1007.24 1006.92 1006.58 1006.23 1005.87 1005.52
1013.44 1013.52 1013.59 1013.66 1013.71 1013.73 1013.73 1013.69 1013.63 1013.54 1013.45 1013.34 1013.22 1013.10 1012.98 1012.86 1012.72 1012.57 1012.39 1012.18 1011.94 1011.66 1011.36 1011.04 1010.71 1010.38 1010.06 1009.77 1009.52 1009.29 1009.11 1008.95 1008.80 1008.66 1008.51 1008.34 1008.13 1007.87 1007.58 1007.23 1006.86 1006.45 1006.03 1005.60
1013.87 1013.93 1014.00 1014.07 1014.13 1014.17 1014.19 1014.19 1014.16 1014.11 1014.05 1013.97 1013.88 1013.78 1013.66 1013.53 1013.37 1013.19 1012.97 1012.72 1012.43 1012.11 1011.76 1011.40 1011.03 1010.67 1010.33 1010.03 1009.76 1009.54 1009.34 1009.18 1009.04 1008.91 1008.76 1008.58 1008.37 1008.11 1007.81 1007.46 1007.06 1006.63 1006.17 1005.70
1014.22 1014.27 1014.34 1014.40 1014.46 1014.52 1014.56 1014.58 1014.58 1014.57 1014.54 1014.49 1014.42 1014.33 1014.22 1014.09 1013.92 1013.72 1013.48 1013.20 1012.88 1012.53 1012.16 1011.77 1011.37 1010.99 1010.63 1010.31 1010.02 1009.78 1009.57 1009.39 1009.22 1009.07 1008.90 1008.72 1008.50 1008.23 1007.93 1007.57 1007.18 1006.75 1006.29 1005.81
1014.54 1014.59 1014.64 1014.70 1014.77 1014.82 1014.87 1014.90 1014.93 1014.93 1014.92 1014.89 1014.84 1014.77 1014.66 1014.53 1014.36 1014.16 1013.91 1013.62 1013.29 1012.93 1012.54 1012.14 1011.73 1011.33 1010.96 1010.61 1010.29 1010.01 1009.76 1009.54 1009.34 1009.15 1008.95 1008.74 1008.50 1008.24 1007.94 1007.60 1007.22 1006.82 1006.38 1005.92
1014.86 1014.91 1014.96 1015.01 1015.07 1015.12 1015.16 1015.20 1015.22 1015.23 1015.23 1015.20 1015.16 1015.09 1014.99 1014.86 1014.69 1014.49 1014.24 1013.95 1013.62 1013.26 1012.88 1012.48 1012.07 1011.66 1011.27 1010.89 1010.54 1010.22 1009.93 1009.66 1009.41 1009.16 1008.93 1008.68 1008.43 1008.16 1007.86 1007.55 1007.21 1006.84 1006.46 1006.05
1015.19 1015.24 1015.29 1015.33 1015.37 1015.41 1015.44 1015.46 1015.47 1015.47 1015.46 1015.42 1015.37 1015.30 1015.20 1015.07 1014.90 1014.70 1014.47 1014.19 1013.87 1013.53 1013.15 1012.76 1012.35 1011.94 1011.53 1011.14 1010.75 1010.39 1010.04 1009.72 1009.41 1009.12 1008.84 1008.57 1008.30 1008.02 1007.74 1007.45 1007.15 1006.84 1006.52 1006.17
1015.53 1015.58 1015.62 1015.65 1015.67 1015.68 1015.68 1015.68 1015.66 1015.64 1015.61 1015.56 1015.50 1015.42 1015.31 1015.18 1015.01 1014.82 1014.59 1014.32 1014.02 1013.69 1013.33 1012.95 1012.55 1012.13 1011.72 1011.30 1010.89 1010.48 1010.10 1009.72 1009.37 1009.04 1008.72 1008.42 1008.13 1007.86 1007.60 1007.34 1007.08 1006.82 1006.54 1006.26
1015.83 1015.88 1015.91 1015.92 1015.91 1015.90 1015.87 1015.84 1015.80 1015.75 1015.69 1015.62 1015.54 1015.45 1015.33 1015.19 1015.03 1014.84 1014.61 1014.36 1014.07 1013.75 1013.40 1013.03 1012.63 1012.22 1011.79 1011.36 1010.92 1010.49 1010.07 1009.67 1009.28 1008.92 1008.58 1008.26 1007.97 1007.70 1007.45 1007.21 1006.98 1006.76 1006.53 1006.29
Thickness
5729 5738 5740 5742 5743 5743 5740 5736 5732 5742 5749 5766 5775 5781 5786 5788 5789 5790 5790 5791 5790 5790 5789 5789 5788 5787 5785 5783 5780 5776 5772 5768 5764 5760 5757 5754 5750 5747 5745 5742 5741 5738 5735 5731
5722 5733 5735 5735 5742 5743 5744 5744 5744 5748 5753 5772 5775 5779 5782 5783 5784 5784 5785 5788 5789 5788 5787 5786 5785 5783 5782 5779 5777 5774 5769 5765 5761 5757 5753 5749 5746 5743 5740 5737 5735 5733 5730 5727
5702 5717 5723 5717 5735 5739 5741 5746 5746 5744 5757 5766 5767 5771 5775 5778 5780 5781 5783 5784 5785 5786 5786 5786 5785 5782 5779 5777 5774 5770 5765 5761 5758 5753 5749 5745 5743 5739 5736 5733 5731 5729 5726 5723
5689 5701 5693 5718 5740 5743 5740 5743 5747 5751 5757 5762 5765 5769 5772 5775 5776 5777 5781 5782 5783 5784 5784 5784 5783 5780 5776 5773 5769 5766 5761 5757 5754 5751 5746 5741 5738 5736 5733 5730 5728 5725 5722 5719
5677 5681 5693 5716 5731 5734 5731 5733 5744 5744 5749 5754 5759 5763 5763 5770 5772 5774 5776 5778 5779 5780 5781 5779 5778 5776 5772 5767 5764 5761 5757 5753 5750 5747 5743 5738 5735 5733 5730 5727 5724 5721 5718 5715
5673 5677 5681 5706 5728 5736 5731 5721 5739 5740 5742 5745 5749 5741 5750 5762 5765 5767 5770 5772 5772 5773 5772 5771 5772 5771 5766 5762 5759 5756 5754 5751 5748 5744 5740 5737 5734 5730 5727 5723 5720 5717 5713 5710
5668 5672 5685 5710 5722 5728 5708 5714 5732 5735 5738 5739 5739 5741 5747 5753 5757 5760 5762 5764 5765 5764 5762 5762 5763 5763 5758 5756 5753 5753 5751 5747 5744 5740 5737 5734 5729 5725 5722 5718 5714 5711 5707 5704
5663 5667 5679 5709 5712 5707 5709 5722 5727 5729 5732 5733 5735 5738 5742 5745 5748 5751 5752 5754 5756 5755 5753 5753 5754 5754 5751 5749 5750 5748 5746 5742 5738 5736 5733 5729 5724 5719 5715 5711 5707 5704 5701 5699
5669 5676 5691 5700 5703 5708 5711 5714 5719 5722 5726 5728 5728 5730 5733 5736 5738 5741 5743 5744 5745 5746 5745 5744 5745 5745 5743 5742 5742 5741 5738 5735 5732 5730 5726 5723 5718 5713 5708 5705 5703 5699 5696 5694
5669 5679 5689 5695 5700 5704 5708 5710 5714 5717 5719 5721 5721 5723 5725 5727 5730 5731 5732 5733 5734 5736 5735 5735 5736 5736 5735 5735 5734 5732 5729 5726 5724 5721 5717 5714 5711 5707 5703 5700 5697 5693 5691 5688
5665 5676 5684 5690 5693 5697 5701 5704 5707 5710 5712 5712 5713 5715 5716 5717 5720 5722 5722 5723 5724 5725 5725 5725 5726 5727 5727 5726 5725 5722 5720 5718 5716 5713 5709 5705 5703 5700 5698 5696 5694 5691 5688 5684
5662 5672 5674 5678 5686 5692 5693 5695 5698 5700 5701 5704 5705 5705 5706 5707 5710 5712 5712 5713 5713 5714 5715 5715 5716 5716 5716 5717 5716 5714 5712 5710 5708 5705 5702 5698 5695 5691 5690 5689 5686 5684 5683 5679
5666 5671 5672 5677 5680 5684 5685 5687 5690 5692 5693 5694 5695 5697 5697 5697 5699 5701 5702 5703 5703 5704 5705 5706 5706 5706 5707 5707 5706 5705 5703 5702 5700 5697 5694 5691 5688 5685 5682 5680 5678 5676 5674 5671
5664 5666 5666 5670 5672 5676 5678 5679 5680 5683 5685 5687 5688 5689 5689 5689 5690 5692 5693 5694 5695 5695 5695 5695 5696 5696 5697 5698 5697 5695 5694 5693 5691 5688 5686 5683 5680 5677 5675 5672 5670 5668 5666 5663
5660 5662 5662 5666 5667 5668 5670 5670 5670 5672 5675 5677 5679 5680 5680 5680 5681 5683 5685 5685 5686 5685 5685 5685 5685 5686 5687 5687 5686 5685 5683 5682 5680 5678 5676 5674 5671 5669 5666 5664 5662 5660 5657 5654
5654 5656 5657 5658 5659 5661 5662 5663 5662 5663 5666 5669 5670 5671 5672 5673 5673 5674 5676 5676 5675 5675 5675 5675 5675 5676 5676 5676 5675 5673 5672 5671 5670 5667 5665 5664 5662 5659 5657 5656 5653 5651 5649 5646
5647 5647 5649 5650 5652 5653 5655 5656 5656 5657 5660 5662 5663 5664 5665 5665 5665 5666 5667 5667 5667 5667 5667 5666 5666 5666 5666 5666 5665 5663 5661 5660 5658 5656 5655 5654 5652 5650 5649 5647 5644 5642 5641 5638
5646 5647 5648 5648 5648 5648 5648 5649 5650 5651 5653 5655 5655 5656 5656 5656 5656 5657 5657 5657 5657 5657 5658 5657 5656 5656 5657 5656 5654 5652 5650 5648 5647 5646 5645 5644 5642 5641 5639 5638 5636 5634 5631 5629
5643 5643 5644 5644 5644 5644 5643 5643 5644 5645 5647 5647 5647 5646 5646 5646 5646 5646 5646 5646 5646 5646 5647 5648 5647 5648 5647 5646 5646 5643 5641 5640 5639 5638 5636 5634 5633 5632 5630 5629 5626 5624 5622 5619
5638 5639 5639 5639 5639 5638 5637 5638 5639 5639 5639 5639 5638 5637 5637 5636 5636 5636 5635 5635 5636 5637 5638 5638 5638 5638 5638 5638 5637 5635 5633 5631 5630 5628 5626 5625 5624 5623 5621 5620 5618 5615 5613 5611
5631 5633 5633 5633 5633 5633 5633 5632 5632 5632 5632 5632 5630 5629 5629 5629 5628 5627 5626 5626 5628 5629 5629 5629 5628 5628 5629 5629 5628 5626 5624 5623 5621 5620 5618 5617 5616 5614 5613 5611 5609 5607 5604 5602
5627 5627 5627 5627 5626 5626 5626 5625 5625 5625 5625 5624 5623 5622 5622 5620 5620 5619 5619 5619 5620 5620 5620 5620 5620 5620 5620 5619 5619 5617 5616 5615 5613 5612 5610 5609 5608 5606 5604 5602 5600 5597 5595 5593
5623 5623 5623 5622 5621 5620 5620 5619 5619 5619 5618 5617 5616 5614 5614 5613 5612 5612 5611 5612 5612 5612 5611 5611 5611 5611 5611 5610 5610 5609 5608 5607 5606 5604 5603 5602 5600 5598 5596 5593 5592 5590 5588 5586
5618 5618 5617 5617 5616 5614 5613 5613 5613 5613 5613 5612 5611 5609 5608 5606 5606 5606 5605 5605 5605 5604 5603 5603 5604 5604 5603 5603 5603 5602 5601 5600 5598 5597 5595 5593 5592 5590 5588 5586 5585 5583 5581 5578
5613 5613 5612 5611 5610 5609 5608 5608 5607 5607 5607 5606 5606 5605 5603 5601 5599 5599 5599 5599 5598 5598 5597 5597 5597 5597 5596 5596 5595 5595 5594 5592 5591 5590 5587 5586 5584 5582 5580 5579 5578 5575 5573 5571
5608 5607 5606 5606 5606 5604 5603 5602 5601 5600 5600 5599 5599 5598 5598 5596 5595 5594 5593 5593 5592 5591 5591 5591 5591 5590 5589 5588 5588 5587 5586 5584 5583 5581 5580 5578 5576 5574 5572 5571 5569 5567 5565 5563
5603 5602 5601 5601 5600 5599 5599 5598 5597 5596 5595 5595 5593 5593 5593 5592 5590 5589 5588 5587 5585 5585 5584 5584 5584 5583 5582 5581 5580 5579 5577 5576 5575 5573 5572 5570 5568 5567 5565 5563 5560 5558 5557 5555